Weather reports worldwide

Advertisment
Reading University Whiteknights, United Kingdom (99183): temperature & dewpoint: 17.10.2020 00:00:00 - 23.10.2020 00:00:00 (BST)Reading University Whiteknights, United Kingdom (99183): temperature -20cm & temperature -100cm: 17.10.2020 00:00:00 - 23.10.2020 00:00:00 (BST)Reading University Whiteknights, United Kingdom (99183): sunshine duration: 17.10.2020 00:00:00 - 23.10.2020 00:00:00 (BST)Reading University Whiteknights, United Kingdom (99183): precipitation: 17.10.2020 00:00:00 - 23.10.2020 00:00:00 (BST)
Date & Time tt [°C] td [°C] tt -20cm [°C] tt -100cm [°C] sd [min] rr [mm]
23.10.2020 00:00:00 10,2 9,3 - - 0 0,0
22.10.2020 23:00:00 11,1 10,2 - - 0 0,0
22.10.2020 22:00:00 11,0 10,0 - - 0 0,0
22.10.2020 21:00:00 11,1 9,5 - - 0 0,0
22.10.2020 20:00:00 11,1 9,5 - - 0 0,0
22.10.2020 19:00:00 11,4 8,8 - - 0 0,0
22.10.2020 18:00:00 12,8 9,6 - - 0 0,0
22.10.2020 17:00:00 13,7 9,5 - - 12 0,0
22.10.2020 16:00:00 13,8 9,7 - - 6 0,0
22.10.2020 15:00:00 13,9 9,7 - - 0 0,0
22.10.2020 14:00:00 13,7 9,3 - - 0 0,0
22.10.2020 13:00:00 14,1 9,8 - - 12 0,0
22.10.2020 12:00:00 12,7 9,5 - - 24 0,0
22.10.2020 11:00:00 13,1 9,9 - - 12 0,0
22.10.2020 10:00:00 13,5 10,8 13,0 13,4 42 0,0
22.10.2020 09:00:00 12,1 10,5 - - 0 0,0
22.10.2020 08:00:00 11,8 10,4 - - 0 0,2
22.10.2020 07:00:00 11,6 10,2 - - 0 0,0
22.10.2020 06:00:00 11,5 10,0 - - 0 0,0
22.10.2020 05:00:00 12,0 10,3 - - 0 0,0
22.10.2020 04:00:00 12,1 10,3 - - 0 0,0
22.10.2020 03:00:00 11,9 10,2 - - 0 0,0
22.10.2020 02:00:00 11,7 10,0 - - 0 0,0
22.10.2020 01:00:00 12,1 10,3 - - - 0,0
22.10.2020 00:00:00 11,7 10,0 - - 0 0,0
21.10.2020 23:00:00 12,9 10,2 - - 0 0,0
21.10.2020 22:00:00 13,5 11,5 - - 0 0,0
21.10.2020 21:00:00 13,4 12,3 - - 0 0,0
21.10.2020 20:00:00 13,7 12,3 - - 0 0,0
21.10.2020 19:00:00 13,8 12,8 - - 0 0,0
21.10.2020 18:00:00 14,0 12,7 - - 0 0,0
21.10.2020 17:00:00 14,4 12,9 - - 0 0,0
21.10.2020 16:00:00 14,3 13,5 - - 0 0,4
21.10.2020 15:00:00 13,7 13,0 - - 0 1,0
21.10.2020 14:00:00 15,0 14,3 - - 0 0,6
21.10.2020 13:00:00 15,0 14,4 - - 0 0,2
21.10.2020 12:00:00 14,4 14,1 - - 0 1,6
21.10.2020 11:00:00 14,0 13,8 - - 0 2,8
21.10.2020 10:00:00 13,9 13,6 12,7 13,2 0 3,6
21.10.2020 09:00:00 13,8 13,5 - - 0 2,0
21.10.2020 08:00:00 13,9 13,6 - - 0 2,2
21.10.2020 07:00:00 14,0 13,7 - - 0 1,2
21.10.2020 06:00:00 14,1 13,7 - - 0 1,0
21.10.2020 05:00:00 14,3 13,8 - - 0 1,2
21.10.2020 04:00:00 14,3 13,4 - - 0 0,2
21.10.2020 03:00:00 14,7 13,0 - - 0 0,0
21.10.2020 02:00:00 14,8 13,0 - - 0 0,0
21.10.2020 01:00:00 14,9 12,9 - - - 0,0
21.10.2020 00:00:00 15,1 13,1 - - 0 0,0
20.10.2020 23:00:00 15,0 12,9 - - 0 0,0
20.10.2020 22:00:00 14,8 13,0 - - 0 0,0
20.10.2020 21:00:00 14,5 13,0 - - 0 0,0
20.10.2020 20:00:00 14,6 12,8 - - 0 0,0
20.10.2020 19:00:00 15,0 12,4 - - 0 0,0
20.10.2020 18:00:00 16,0 11,9 - - 0 0,0
20.10.2020 17:00:00 16,5 11,9 - - 0 0,0
20.10.2020 16:00:00 16,9 11,9 - - 12 0,0
20.10.2020 15:00:00 17,4 11,8 - - 12 0,0
20.10.2020 14:00:00 17,1 12,4 - - 0 0,0
20.10.2020 13:00:00 16,9 12,2 - - 0 0,0
20.10.2020 12:00:00 16,7 12,9 - - 6 0,0
20.10.2020 11:00:00 15,9 13,1 - - 6 0,0
20.10.2020 10:00:00 14,9 13,3 12,2 13,2 6 0,0
20.10.2020 09:00:00 13,6 12,8 - - 0 0,6
20.10.2020 08:00:00 13,1 12,4 - - 0 0,0
20.10.2020 07:00:00 12,8 12,3 - - 0 0,6
20.10.2020 06:00:00 12,6 12,0 - - 0 0,8
20.10.2020 05:00:00 12,7 11,1 - - 0 0,0
20.10.2020 04:00:00 12,6 10,2 - - 0 0,0
20.10.2020 03:00:00 12,9 9,2 - - 0 0,0
20.10.2020 02:00:00 12,4 8,5 - - 0 0,0
20.10.2020 01:00:00 11,8 7,9 - - - 0,0
20.10.2020 00:00:00 11,9 7,6 - - 0 0,0
19.10.2020 23:00:00 12,0 7,5 - - 0 0,0
19.10.2020 22:00:00 12,3 7,5 - - 0 0,0
19.10.2020 21:00:00 12,2 7,1 - - 0 0,0
19.10.2020 20:00:00 12,4 7,0 - - 0 0,0
19.10.2020 19:00:00 12,2 6,9 - - 0 0,0
19.10.2020 18:00:00 12,4 6,9 - - 0 0,0
19.10.2020 17:00:00 12,8 6,8 - - 0 0,0
19.10.2020 16:00:00 13,6 6,5 - - 6 0,0
19.10.2020 15:00:00 14,8 6,0 - - 54 0,0
19.10.2020 14:00:00 14,9 6,9 - - 42 0,0
19.10.2020 13:00:00 14,7 5,9 - - 60 0,0
19.10.2020 12:00:00 13,8 8,3 - - 30 0,0
19.10.2020 11:00:00 12,2 8,6 - - 0 0,0
19.10.2020 10:00:00 10,8 8,3 12,0 13,4 0 0,0
19.10.2020 09:00:00 9,1 7,7 - - 0 0,0
19.10.2020 08:00:00 8,3 7,4 - - 0 0,0
19.10.2020 07:00:00 7,6 7,3 - - 0 0,0
19.10.2020 06:00:00 6,6 6,3 - - 0 0,0
19.10.2020 05:00:00 6,7 6,2 - - 0 0,0
19.10.2020 04:00:00 7,1 6,2 - - 0 0,0
19.10.2020 03:00:00 8,8 7,2 - - 0 0,0
19.10.2020 02:00:00 9,5 7,5 - - 0 0,0
19.10.2020 01:00:00 9,6 8,0 - - - 0,0
19.10.2020 00:00:00 9,7 8,3 - - 0 0,0
18.10.2020 23:00:00 9,2 8,2 - - 0 0,0
18.10.2020 22:00:00 9,5 8,3 - - 0 0,0
18.10.2020 21:00:00 9,7 8,3 - - 0 0,0
18.10.2020 20:00:00 9,6 8,5 - - 0 0,0
18.10.2020 19:00:00 9,8 8,1 - - 0 0,0
18.10.2020 18:00:00 10,7 7,8 - - 0 0,0
18.10.2020 17:00:00 11,7 7,4 - - 0 0,0
18.10.2020 16:00:00 11,8 7,5 - - 0 0,0
18.10.2020 15:00:00 11,8 8,1 - - 0 0,0
18.10.2020 14:00:00 11,0 8,3 - - 0 0,0
18.10.2020 13:00:00 10,4 8,3 - - 0 0,0
18.10.2020 12:00:00 9,6 8,5 - - 0 0,0
18.10.2020 11:00:00 8,5 8,2 - - 0 0,0
18.10.2020 10:00:00 7,9 7,8 12,0 13,4 0 0,0
18.10.2020 09:00:00 6,7 6,6 - - 0 0,0
18.10.2020 08:00:00 4,7 4,6 - - 0 0,0
18.10.2020 07:00:00 4,1 3,9 - - 0 0,0
18.10.2020 06:00:00 4,1 3,8 - - 0 0,0
18.10.2020 05:00:00 4,6 4,2 - - 0 0,0
18.10.2020 04:00:00 6,0 5,3 - - 0 0,0
18.10.2020 03:00:00 7,4 6,1 - - 0 0,0
18.10.2020 02:00:00 7,8 6,1 - - 0 0,0
18.10.2020 01:00:00 7,5 6,3 - - - 0,0
18.10.2020 00:00:00 7,4 6,6 - - 0 0,0
17.10.2020 23:00:00 6,6 5,7 - - 0 0,0
17.10.2020 22:00:00 8,1 6,1 - - 0 0,0
17.10.2020 21:00:00 9,0 6,6 - - 0 0,0
17.10.2020 20:00:00 9,8 6,4 - - 0 0,0
17.10.2020 19:00:00 10,0 6,4 - - 0 0,0
17.10.2020 18:00:00 10,4 6,5 - - 0 0,0
17.10.2020 17:00:00 11,3 6,8 - - 0 0,0
17.10.2020 16:00:00 11,7 7,0 - - 0 0,0
17.10.2020 15:00:00 11,4 7,3 - - 0 0,0
17.10.2020 14:00:00 11,5 7,0 - - 0 0,0
17.10.2020 13:00:00 11,1 7,3 - - 0 0,0
17.10.2020 12:00:00 10,7 7,2 - - 0 0,0
17.10.2020 11:00:00 10,1 7,1 - - 0 0,0
17.10.2020 10:00:00 9,8 7,2 12,0 13,5 0 0,0
17.10.2020 09:00:00 9,4 7,4 - - 0 0,0
17.10.2020 08:00:00 9,2 7,5 - - 0 0,0
17.10.2020 07:00:00 9,3 7,7 - - 0 0,0
17.10.2020 06:00:00 9,3 7,8 - - 0 0,0
17.10.2020 05:00:00 9,3 8,0 - - 0 0,0
17.10.2020 04:00:00 9,4 8,2 - - 0 0,0
17.10.2020 03:00:00 9,7 7,9 - - 0 0,0
17.10.2020 02:00:00 9,7 7,8 - - 0 0,0
17.10.2020 01:00:00 10,1 8,4 - - - 0,0
17.10.2020 00:00:00 9,9 8,2 - - 0 0,0

tt = temperature
td = dewpoint
tt -20cm = temperature -20cm
tt -100cm = temperature -100cm
sd = sunshine duration
rr = precipitation

Next stations